Regional Weather Roundup
Issued by NWS

Home | Current Version | Previous Version | Graphics & Text | Print | Product List | Glossary Off
Versions: 1 2 3 4 5 6 7 8 9 10 11 12 13 14 15 16 17 18 19 20 21 22 23 24 25 26 27 28 29 30 31 32 33 34 35 36 37 38 39 40 41 42 43 44 45 46 47 48 49 50

000
ASUS43 KTOP 231308
RWRKS

WEATHER ROUNDUP FOR KANSAS
NATIONAL WEATHER SERVICE GOODLAND KS
800 AM CDT TUE MAY 23 2017

NOTE:  "FAIR" INDICATES FEW OR NO CLOUDS BELOW 12,000 FEET WITH NO
SIGNIFICANT WEATHER AND/OR OBSTRUCTIONS TO VISIBILITY.

KSZ001>006-013>018-027>032-041>047-231400-
NORTHWEST KANSAS

CITY           SKY/WX    TMP DP  RH WIND       PRES   REMARKS
GOODLAND       SUNNY     44  40  85 NW14      30.12S
HAYS           SUNNY     50  44  80 NW13      30.06R
HILL CITY      SUNNY     49  44  83 NW13      30.07R
RUSSELL        SUNNY     50  46  86 NW13      30.02S
$$

KSZ061>065-074>080-084>089-231400-
SOUTHWEST KANSAS

CITY           SKY/WX    TMP DP  RH WIND       PRES   REMARKS
DODGE CITY     MOSUNNY   48  44  86 NW15G23   30.07S
ELKHART          N/A     46  34  63 NW10        N/A
GARDEN CITY    SUNNY     46  41  82 NW16      30.10S
GREAT BEND     MOSUNNY   51  46  83 NW13      30.03S
LIBERAL        PTSUNNY   48  44  86 N14       30.11F
PRATT          CLOUDY    48  44  85 NW15      30.03S
$$

KSZ066>073-081>083-090>101-231400-
SOUTHEAST KANSAS

CITY           SKY/WX    TMP DP  RH WIND       PRES   REMARKS
CHANUTE        CLOUDY    57  52  83 N13       29.89R
COFFEYVILLE    SUNNY     60  57  89 N10       29.89R
HUTCHINSON     MOSUNNY   53  46  77 N13       29.99R
MEDICINE LODGE   N/A     52  45  77 N10       30.01S
NEWTON         CLOUDY    54  50  86 N18       29.97S
PARSONS        CLOUDY    58  54  86 N10       29.89S
WICHITA INTL   PTSUNNY   54  50  86 N16       29.97R
WICHITA JABRA  CLOUDY    53  50  89 N15       29.96R
WICHITA MCCONL CLOUDY    54  49  83 N13       29.96R
WINFIELD       LGT RAIN  54  52  93 N10       29.96R
$$

KSZ007>012-019>026-033>040-048>060-102>105-231400-
NORTHEAST KANSAS

CITY           SKY/WX    TMP DP  RH WIND       PRES   REMARKS
CONCORDIA      SUNNY     51  48  89 NW12      29.97S
EMPORIA        CLOUDY    54  49  83 N12       29.93R
LAWRENCE       LGT RAIN  54  52  93 NW9       29.90R
MANHATTAN      MOSUNNY   56  49  77 CALM      29.95S
MARYSVILLE     SUNNY     54  46  76 NW14      29.94S
OLATHE IND     LGT RAIN  54  51  90 NW14      29.90R
OLATHE EXE     LGT RAIN  54  53  97 N12       29.89R
SALINA         SUNNY     54  49  83 NW12      29.99R
TOPEKA BILLARD CLOUDY    54  51  90 NW6       29.92R
TOPEKA FORBES  CLOUDY    55  50  83 N10       29.91S
$$



USA.gov is the U.S. government's official web portal to all federal, state and local government web resources and services.